Location: Saint-Restitut
(44.3351°N, 4.7915°E)
Time: 03:28:22
(UTC+00:00)

Atlas Centaur 2 - Pass Details

Date: 03 February 2023
Orbit: 459 x 1295 km, 30.4° (Epoch: 27 March)

Event Time Altitude Azimuth Distance (km) Brightness Sun altitude
Rises 18:07:19 0° 224° (SW) 4,047 6.7 -13.6°
Reaches altitude 10° 18:10:44 10° 210° (SSW) 3,179 5.7 -14.2°
Maximum altitude 18:16:47 23° 162° (SSE) 2,421 4.5 -15.3°
Enters shadow 18:22:01 13° 120° (ESE) 3,069 4.6 -16.2°
